This demonstration page uses our WeatherBlox Daily Observations layout. Learn more.

Left ArrowRight Arrow

40.92945, -100.16068

Hourly Observations for November 6, 2020

Temp ( °F °C ) Dew Point ( °F °C ) Humidity (%) Winds ( mph kmh ) Pressure ( in mb ) Visibility ( mi km ) Precip ( " mm )
12:15 am 00:15 Clear 55 12.5 33 0.5 44 44 S 6 9 30.07 1018 10 16.0934 0 0
12:35 am 00:35 Clear 55 12.6 32 0.2 43 43 SSW 6 9 30.07 1018 10 16.0934 0 0
12:55 am 00:55 Clear 55 12.9 32 0.1 42 42 SSW 8 13 30.05 1018 10 16.0934 0 0
1:15 am 01:15 Clear 53 11.9 32 0 44 44 SSW 3 6 30.05 1018 10 16.0934 0 0
1:35 am 01:35 Clear 44 6.5 30 -1.1 59 59 Calm 30.1 1019 10 16.0934 0 0
1:55 am 01:55 Clear 53 11.4 32 -0.1 45 45 S 3 6 30.06 1018 10 16.0934 0 0
2:15 am 02:15 Clear 52 10.9 31 -0.3 46 46 SW 5 7 30.06 1018 10 16.0934 0 0
2:35 am 02:35 Clear 52 10.9 31 -0.3 46 46 SSW 6 9 30.06 1018 10 16.0934 0 0
2:55 am 02:55 Clear 51 10.6 31 -0.3 47 47 S 5 7 30.06 1018 10 16.0934 0 0
3:15 am 03:15 Clear 50 9.9 31 -0.4 49 49 Calm 30.06 1018 10 16.0934 0 0
3:35 am 03:35 Clear 49 9.5 31 -0.7 49 49 Calm 30.06 1018 10 16.0934 0 0
3:55 am 03:55 Clear 52 11 31 -0.7 45 45 Calm 30.04 1017 10 16.0934 0 0
4:15 am 04:15 Clear 47 8.6 30 -1.1 51 51 Calm 30.05 1018 10 16.0934 0 0
4:35 am 04:35 Clear 49 9.4 30 -0.9 49 49 Calm 30.05 1017 10 16.0934 0 0
4:55 am 04:55 Clear 47 8.5 30 -1 52 52 S 5 7 30.06 1018 10 16.0934 0 0
5:15 am 05:15 Clear 45 7 30 -1 57 57 S 3 6 30.06 1018 10 16.0934 0 0
5:35 am 05:35 Clear 46 8 30 -1 53 53 Calm 30.06 1018 10 16.0934 0 0
5:55 am 05:55 Clear 46 8 30 -1 53 53 Calm 30.05 1018 10 16.0934 0 0
6:15 am 06:15 Clear 45 7.3 29 -1.6 54 54 Calm 30.05 1017 10 16.0934 0 0
6:35 am 06:35 Clear 44 6.7 29 -1.6 56 56 SE 3 6 30.05 1018 10 16.0934 0 0
6:55 am 06:55 Clear 47 8.2 30 -1.2 52 52 SE 6 9 30.03 1017 10 16.0934 0 0
7:15 am 07:15 Clear 46 7.5 30 -1.3 54 54 SE 6 9 30.01 1016 10 16.0934 0 0
7:35 am 07:35 Sunny 46 8 30 -1.1 53 53 Calm 30.02 1017 10 16.0934 0 0
7:55 am 07:55 Sunny 48 9 31 -0.6 51 51 SSE 7 11 30.01 1016 10 16.0934 0 0
8:15 am 08:15 Sunny 51 10.5 32 -0.2 48 48 S 6 9 30.01 1016 10 16.0934 0 0
8:35 am 08:35 Sunny 54 12.1 32 0 44 44 S 13 20 29.98 1015 10 16.0934 0 0
8:55 am 08:55 Sunny 56 13.2 32 0 41 41 SSW 10 17 29.98 1015 10 16.0934 0 0
9:15 am 09:15 Sunny 59 15 33 0.4 37 37 SSW 9 15 29.97 1015 10 16.0934 0 0
9:35 am 09:35 Sunny 62 16.8 33 0.5 33 33 SSW 15 24 29.94 1014 10 16.0934 0 0
9:55 am 09:55 Sunny 63 17 32 0.1 32 32 SSW 21 33 29.93 1013 10 16.0934 0 0
10:15 am 10:15 Sunny 65 18.2 33 0.4 30 30 SSW 22 35 29.92 1013 10 16.0934 0 0
10:35 am 10:35 Sunny 67 19.5 33 0.6 28 28 SSW 16 26 29.9 1012 10 16.0934 0 0
10:55 am 10:55 Sunny 70 21 33 0.5 26 26 SSW 18 30 29.88 1012 10 16.0934 0 0
11:15 am 11:15 Sunny 72 22.1 32 0.1 23 23 SSW 20 31 29.86 1011 10 16.0934 0 0
11:35 am 11:35 Sunny 73 22.5 32 -0.1 22 22 SSW 17 28 29.85 1011 10 16.0934 0 0
11:55 am 11:55 Sunny 73 23 32 0 22 22 SSW 18 30 29.84 1010 10 16.0934 0 0
12:15 pm 12:15 Sunny 75 23.9 32 0 21 21 SSW 20 31 29.82 1010 10 16.0934 0 0
12:35 pm 12:35 Sunny 76 24.6 33 0.6 21 21 S 16 26 29.79 1009 10 16.0934 0 0
12:55 pm 12:55 Sunny 79 26 31 -0.6 17 17 S 16 26 29.77 1008 10 16.0934 0 0
1:15 pm 13:15 Sunny 80 26.7 31 -0.6 17 17 SSW 18 30 29.76 1008 10 16.0934 0 0
1:35 pm 13:35 Sunny 81 27.1 30 -1 16 16 S 24 39 29.73 1007 10 16.0934 0 0
1:55 pm 13:55 Sunny 82 27.5 31 -0.8 16 16 S 23 37 29.72 1006 10 16.0934 0 0
2:15 pm 14:15 Sunny 82 27.7 30 -0.9 15 15 S 21 33 29.71 1006 10 16.0934 0 0
2:35 pm 14:35 Hazy 83 28.2 31 -0.6 15 15 S 23 37 29.69 1006 5 8.0467 0 0
2:55 pm 14:55 Sunny 83 28.2 31 -0.3 16 16 S 21 33 29.69 1006 10 16.0934 0 0
3:15 pm 15:15 Sunny 82 28 31 -0.6 15 15 S 24 39 29.69 1005 10 16.0934 0 0
3:35 pm 15:35 Sunny 83 28.1 30 -0.9 15 15 S 21 33 29.69 1005 7 11.26538 0 0
3:55 pm 15:55 Sunny 82 27.5 31 -0.6 16 16 S 18 30 29.69 1005 10 16.0934 0 0
4:15 pm 16:15 Sunny 81 27 31 -0.5 16 16 S 17 28 29.68 1005 10 16.0934 0 0
4:35 pm 16:35 Sunny 79 26.1 32 0 18 18 S 18 30 29.69 1005 10 16.0934 0 0
4:55 pm 16:55 Sunny 77 25 32 0 19 19 SSE 15 24 29.7 1006 10 16.0934 0 0
5:15 pm 17:15 Sunny 75 23.8 32 0.1 21 21 SSE 16 26 29.71 1006 10 16.0934 0 0
5:35 pm 17:35 Clear 73 23 32 0.2 22 22 SSE 15 24 29.72 1006 10 16.0934 0 0
5:55 pm 17:55 Clear 71 21.7 32 0.1 24 24 SSE 16 26 29.73 1007 10 16.0934 0 0
6:15 pm 18:15 Clear 71 21.7 32 0 24 24 SSE 20 31 29.73 1007 10 16.0934 0 0
6:35 pm 18:35 Clear 69 20.6 32 0 25 25 SSE 18 30 29.75 1007 10 16.0934 0 0
6:55 pm 18:55 Clear 68 20.1 33 0.5 27 27 SSE 17 28 29.75 1008 10 16.0934 0 0
7:15 pm 19:15 Clear 68 20 35 1.5 29 29 SSE 18 30 29.75 1008 10 16.0934 0 0
7:35 pm 19:35 Clear 67 19.5 36 2 31 31 SSE 16 26 29.76 1008 10 16.0934 0 0
7:55 pm 19:55 Clear 67 19.6 37 3 33 33 SSE 18 30 29.76 1008 10 16.0934 0 0
8:15 pm 20:15 Clear 67 19.3 40 4.5 38 38 SSE 20 31 29.76 1008 10 16.0934 0 0
8:35 pm 20:35 Clear 66 19.1 41 5.1 40 40 SSE 16 26 29.77 1008 10 16.0934 0 0
8:55 pm 20:55 Clear 66 18.9 42 5.7 42 42 SSE 20 31 29.76 1008 10 16.0934 0 0
9:15 pm 21:15 Clear 65 18.3 44 6.5 46 46 SSE 21 33 29.78 1008 10 16.0934 0 0
9:35 pm 21:35 Clear 64 17.6 45 7.2 51 51 SSE 16 26 29.78 1009 10 16.0934 0 0
9:55 pm 21:55 Clear 63 17.2 47 8.2 56 56 SSE 17 28 29.79 1009 10 16.0934 0 0
10:15 pm 22:15 Clear 62 16.8 48 8.8 59 59 SSE 14 22 29.79 1009 10 16.0934 0 0
10:35 pm 22:35 Clear 62 16.5 49 9.4 63 63 SSE 15 24 29.79 1009 10 16.0934 0 0
10:55 pm 22:55 Clear 62 16.5 50 9.8 65 65 S 17 28 29.79 1009 10 16.0934 0 0
11:15 pm 23:15 Clear 61 16.3 50 10.1 67 67 S 16 26 29.79 1009 10 16.0934 0 0
11:35 pm 23:35 Clear 61 16.1 50 10.2 68 68 S 15 24 29.79 1009 10 16.0934 0 0
11:55 pm 23:55 Clear 60 15.8 51 10.3 70 70 S 14 22 29.79 1009 10 16.0934 0 0

Powered by AerisWeather